Stornoway, United Kingdom

6:03 AM BST on April 25, 2018 (GMT +0100)
Stornoway

Weather History for EGPO - April, 2018

Change the Weather History Date:

Monday, April 16, 2018

  Actual Average Record
Temperature  
Mean Temperature 50 °F -  
Max Temperature 53 °F 52 °F 62 °F (2003)
Min Temperature 46 °F 41 °F 26 °F (2012)
Degree Days  
Heating Degree Days 16    
Moisture  
Dew Point 44 °F    
Average Humidity 77    
Maximum Humidity 94    
Minimum Humidity 57    
Precipitation  
Precipitation 0.00 in 0.08 in - ()
Sea Level Pressure  
Sea Level Pressure 29.54 in    
Wind  
Wind Speed 13 mph ()    
Max Wind Speed 22 mph    
Max Gust Speed -    
Visibility 8.5 miles    
Events Rain    
Averages and records for this station are not official NWS values.
T = Trace of Precipitation, MM = Missing Value Source: Averaged Metar Reports

Daily Weather History Graph

Daily Weather History Graph

Search for Another Location

Airport or City:

Astronomy

Apr. 16, 2018 Rise Set
Actual Time 6:11 AM BST 8:40 PM BST
Civil Twilight 5:28 AM BST 9:23 PM BST
Nautical Twilight 4:31 AM BST 10:21 PM BST
Astronomical Twilight 3:17 AM BST 11:37 PM BST
Moon 6:59 AM BST (4/16) 9:08 PM BST (4/16)
Length of Visible Light 15h 55m
Length of Day
14h 28m
New Moon, 0% of the Moon is Illuminated
Apr 16
New Moon
Apr 22
First Quarter
Apr 30
Full
May 8
Last Quarter
May 15
New

Hourly Weather History & Observations

Time (BST) Temp. Dew Point Humidity Pressure Visibility Wind Dir Wind Speed Gust Speed Precip Events Conditions
12:20 AM 50.0 °F 42.8 °F 76% 29.53 in 6.2 mi SE 11.5 mph - N/A   Unknown
12:50 AM 50.0 °F 42.8 °F 76% 29.53 in 6.2 mi SE 9.2 mph - N/A   Unknown
1:00 AM 50 °F 43 °F 68% 29.53 in 10 mi SE 12.7 mph - -   Mostly Cloudy
1:20 AM 50.0 °F 42.8 °F 76% 29.53 in 6.2 mi SE 13.8 mph - N/A   Unknown
1:50 AM 50.0 °F 42.8 °F 76% 29.50 in 6.2 mi ESE 15.0 mph - N/A   Unknown
2:00 AM 49 °F 43 °F 71% 29.52 in 8 mi ESE 18.4 mph - -   Overcast
2:20 AM 50.0 °F 42.8 °F 76% 29.50 in 6.2 mi SE 13.8 mph - N/A Rain Light Rain
2:50 AM 50.0 °F 42.8 °F 76% 29.50 in 6.2 mi SE 15.0 mph - N/A Rain Light Rain
3:00 AM 48 °F 43 °F 77% 29.52 in 7 mi SE 16.1 mph - - Rain Rain
3:20 AM 48.2 °F 44.6 °F 87% 29.50 in 6.2 mi ESE 9.2 mph - N/A Rain Light Rain
3:50 AM 48.2 °F 44.6 °F 87% 29.50 in 6.2 mi SE 12.7 mph - N/A   Mostly Cloudy
4:20 AM 48.2 °F 44.6 °F 87% 29.50 in 6.2 mi ESE 12.7 mph - N/A   Unknown
4:50 AM 48.2 °F 42.8 °F 82% 29.50 in 6.2 mi SE 9.2 mph - N/A   Scattered Clouds
5:00 AM 47 °F 43 °F 80% 29.50 in 9 mi SE 10.4 mph - -   Mostly Cloudy
5:20 AM 48.2 °F 42.8 °F 82% 29.50 in 6.2 mi ESE 10.4 mph - N/A   Mostly Cloudy
5:50 AM 48.2 °F 42.8 °F 82% 29.50 in 6.2 mi SE 8.1 mph - N/A   Scattered Clouds
6:20 AM 48.2 °F 42.8 °F 82% 29.50 in 6.2 mi SE 12.7 mph - N/A   Mostly Cloudy
6:50 AM 48.2 °F 42.8 °F 82% 29.50 in 6.2 mi SE 15.0 mph - N/A   Mostly Cloudy
7:00 AM 49 °F 43 °F 73% 29.51 in 17 mi SE 15.0 mph - -  
7:20 AM 48.2 °F 42.8 °F 82% 29.50 in 6.2 mi SE 13.8 mph - N/A   Mostly Cloudy
7:50 AM 48.2 °F 42.8 °F 82% 29.50 in 6.2 mi SE 13.8 mph - N/A   Mostly Cloudy
8:00 AM 48 °F 43 °F 77% 29.52 in 16 mi SE 16.1 mph - -   Mostly Cloudy
8:20 AM 48.2 °F 42.8 °F 82% 29.50 in 6.2 mi SE 10.4 mph - N/A   Mostly Cloudy
8:50 AM 48.2 °F 44.6 °F 87% 29.50 in 6.2 mi SSE 10.4 mph - N/A   Mostly Cloudy
9:00 AM 48 °F 44 °F 80% 29.53 in 22 mi SSE 16.1 mph - -   Mostly Cloudy
9:20 AM 48.2 °F 44.6 °F 87% 29.53 in 6.2 mi SSE 8.1 mph - N/A   Mostly Cloudy
9:50 AM 48.2 °F 44.6 °F 87% 29.53 in 6.2 mi South 8.1 mph - N/A   Mostly Cloudy
10:00 AM 48 °F 45 °F 84% 29.55 in 25 mi South 9.2 mph - -   Mostly Cloudy
10:20 AM 50.0 °F 46.4 °F 87% 29.56 in 6.2 mi South 12.7 mph - N/A   Mostly Cloudy
10:50 AM 50.0 °F 46.4 °F 87% 29.56 in 6.2 mi South 15.0 mph - N/A   Mostly Cloudy
11:00 AM 48 °F 46 °F 92% 29.57 in 7 mi South 15.0 mph - -   Light Haze
11:20 AM 50.0 °F 48.2 °F 94% 29.56 in 6.2 mi South 17.3 mph - N/A   Scattered Clouds
11:50 AM 51.8 °F 48.2 °F 88% 29.56 in 6.2 mi South 16.1 mph - N/A   Scattered Clouds
12:00 PM 51 °F 47 °F 83% 29.58 in 14 mi South 16.1 mph - -   Mostly Cloudy
12:20 PM 51.8 °F 46.4 °F 82% 29.59 in 6.2 mi South 15.0 mph - N/A   Scattered Clouds
12:50 PM 51.8 °F 46.4 °F 82% 29.59 in 6.2 mi South 15.0 mph - N/A   Partly Cloudy
1:00 PM 52 °F 46 °F 72% 29.59 in 11 mi South 13.8 mph - -   Scattered Clouds
1:20 PM 53.6 °F 46.4 °F 77% 29.59 in 6.2 mi South 18.4 mph - N/A   Partly Cloudy
1:50 PM 53.6 °F 46.4 °F 77% 29.59 in 6.2 mi SSW 17.3 mph - N/A   Partly Cloudy
2:20 PM 51.8 °F 44.6 °F 76% 29.59 in 6.2 mi SSE 15.0 mph - N/A   Partly Cloudy
2:50 PM 51.8 °F 44.6 °F 76% 29.59 in 6.2 mi South 11.5 mph - N/A   Scattered Clouds
3:00 PM 53 °F 45 °F 67% 29.60 in 19 mi South 11.5 mph - -   Scattered Clouds
3:20 PM 53.6 °F 46.4 °F 77% 29.59 in 6.2 mi South 13.8 mph - N/A   Partly Cloudy
3:50 PM 51.8 °F 44.6 °F 76% 29.59 in 6.2 mi South 11.5 mph - N/A   Partly Cloudy
4:00 PM 50 °F 44 °F 71% 29.58 in 18 mi South 11.5 mph - -   Partly Cloudy
4:20 PM 51.8 °F 44.6 °F 76% 29.56 in 6.2 mi South 17.3 mph - N/A   Partly Cloudy
4:50 PM 51.8 °F 42.8 °F 71% 29.56 in 6.2 mi SSW 17.3 mph - N/A   Partly Cloudy
5:00 PM 51 °F 43 °F 65% 29.58 in 17 mi South 17.3 mph - -   Scattered Clouds
5:20 PM 51.8 °F 42.8 °F 71% 29.56 in 6.2 mi South 19.6 mph - N/A   Partly Cloudy
5:50 PM 51.8 °F 41.0 °F 67% 29.56 in 6.2 mi South 21.9 mph - N/A   Partly Cloudy
6:00 PM 51 °F 40 °F 57% 29.57 in 17 mi South 21.9 mph - -   Overcast
6:20 PM 50.0 °F 41.0 °F 71% 29.56 in 6.2 mi South 20.7 mph - N/A   Partly Cloudy
6:50 PM 50.0 °F 41.0 °F 71% 29.53 in 6.2 mi South 20.7 mph - N/A   Partly Cloudy
7:00 PM 50 °F 41 °F 61% 29.55 in 12 mi South 18.4 mph - -   Overcast
7:20 PM 50.0 °F 41.0 °F 71% 29.53 in 6.2 mi South 17.3 mph - N/A   Partly Cloudy
8:00 PM 50 °F 40 °F 58% 29.55 in 17 mi SSE 17.3 mph - -   Scattered Clouds
9:00 PM 50 °F 40 °F 60% 29.55 in 16 mi SSE 16.1 mph - - Rain Light Rain Showers
10:00 PM 50 °F 42 °F 65% 29.54 in 14 mi SSE 16.1 mph - - Rain Light Rain
11:00 PM 49 °F 42 °F 69% 29.52 in 11 mi South 18.4 mph - - Rain Rain